Home > Time Zones > World Clock > Weather > France > Caen > Past weeks

Flag for France Weather past 2 weeks in Caen, France

Now
54 °F

Clear.


Feels Like: 53 °F
Forecast: 52 / 78 °F
Wind: 5 mph from Southwest

Location: Caen Airport

Current Time: Aug 1, 2014 at 1:43:43 AM

Latest Report: Aug 1, 2014 at 1:00 AM


Visibility: N/A

Pressure: 29.95 "Hg

Humidity: 100%

Dew point: 54 °F

Location of CaenLocation

Historic Weather in Caen — Graph

°F

Caen temperature yesterday

Maximum temperature yesterday: 72 °F (at 1:00 PM)
Minimum temperature yesterday: 52 °F (at 3:00 AM)
Average temperature yesterday: 62 °F

Past Weeks' High & Low Weather Summary

 TemperatureHumidityPressure
High84 °F (Jul 17, 5:00 PM)100% (Jul 17, 6:00 AM)30.18 "Hg (Jul 17, 6:00 AM)
Low52 °F (Jul 31, 3:00 AM)45% (Jul 25, 4:00 PM)29.71 "Hg (Jul 19, 7:00 AM)
Average67 °F78%30.00 "Hg
* Reported Midnight between Jul 16 and Jul 17 — Aug 1 12:30 AM, Caen, Weather by CustomWeather, © 2014

Note: Actual official high and low records may vary slightly from our data, if they occured in-between our weather recording intervals... More about our weather records

Advertising

Caen weather history for previous 24 hours

 ConditionsComfort  
Time TempWeatherWind HumidityBarometerVisibility
12:30 AM
Aug 1
55 °FClear.2 mph94%29.95 "HgN/A
12:00 AM55 °FClear.2 mph88%29.95 "HgN/A
11:30 PM
Jul 31
57 °FClear.No wind88%29.95 "Hg5 mi
11:00 PM59 °FClear.No wind82%29.98 "HgN/A
10:30 PM61 °FClear.1 mph83%29.98 "Hg6 mi
10:00 PM63 °FLight fog.2 mph73%29.98 "Hg1 mi
9:30 PM64 °FClear.5 mph73%29.95 "HgN/A
9:00 PM66 °FClear.6 mph68%29.95 "HgN/A
8:30 PM66 °FClear.5 mph68%29.95 "HgN/A
8:00 PM68 °FClear.5 mph64%29.95 "HgN/A
7:30 PM68 °FClear.7 mph64%29.98 "HgN/A
7:00 PM68 °FClear.8 mph64%29.98 "HgN/A
6:30 PM70 °FPassing clouds.7 mph64%29.98 "HgN/A
6:00 PM70 °FScattered clouds.7 mph64%29.98 "HgN/A
5:30 PM70 °FPartly sunny.8 mph64%29.98 "HgN/A
5:00 PM70 °FScattered clouds.10 mph64%29.98 "HgN/A
4:30 PM70 °FScattered clouds.10 mph69%29.98 "HgN/A
4:00 PM72 °FPartly sunny.6 mph61%29.98 "HgN/A
3:30 PM72 °FScattered clouds.7 mph65%29.98 "HgN/A
3:00 PM70 °FPassing clouds.10 mph69%30.01 "HgN/A
2:30 PM72 °FPartly sunny.8 mph61%30.01 "HgN/A
2:00 PM72 °FPartly sunny.7 mph61%30.01 "HgN/A
1:30 PM70 °FPartly sunny.6 mph69%30.01 "HgN/A
1:00 PM72 °FPartly sunny.3 mph57%30.01 "HgN/A
12:30 PM68 °FPassing clouds.3 mph69%30.01 "HgN/A
12:00 PM68 °FPartly sunny.7 mph73%30.04 "HgN/A
11:30 AM66 °FPartly sunny.8 mph78%30.04 "HgN/A
11:00 AM66 °FPartly sunny.9 mph78%30.04 "HgN/A
10:30 AM66 °FPartly sunny.7 mph78%30.04 "HgN/A
10:00 AM63 °FOvercast.7 mph88%30.04 "HgN/A
9:30 AM63 °FPartly sunny.8 mph88%30.04 "HgN/A
9:00 AM61 °FClear.3 mph88%30.04 "HgN/A
8:30 AM57 °FClear.2 mph94%30.04 "HgN/A
8:00 AM55 °FClear.3 mph94%30.04 "HgN/A
7:30 AM54 °FClear.2 mph94%30.04 "HgN/A
7:00 AM52 °FClear.1 mph94%30.04 "HgN/A
6:30 AM52 °FClear.3 mph94%30.04 "HgN/A
6:00 AM52 °FClear.6 mph94%30.04 "HgN/A
5:30 AM52 °FClear.3 mph88%30.04 "HgN/A
4:30 AM52 °FClear.6 mph94%30.04 "HgN/A
4:00 AM52 °FClear.7 mph94%30.04 "HgN/A
3:30 AM52 °FClear.7 mph94%30.04 "HgN/A
3:00 AM52 °FClear.5 mph94%30.04 "HgN/A
2:30 AM54 °FClear.2 mph88%30.04 "HgN/A
2:00 AM54 °FClear.6 mph88%30.04 "HgN/A
1:30 AM54 °FClear.7 mph88%30.04 "HgN/A
1:00 AM54 °FClear.6 mph94%30.04 "HgN/A
Weather by CustomWeather, © 2014

See weather overviewHow to use our weather pages